RH
35 31 28 27 29 28 26 24 25 29 29 28 27 27 26 23 20 22 28 32 35 29 26 22 19 19 20 23 30 35 35 31 25 24 26 20 11 11 12 12 13 13 16
32 29 29 27 30 32 30 28 30 30 27 25 24 22 21 19 23 26 35 23 17 15 12 10 16 20 20 25 26 27 26 25 22 21 17 12 12 14 15 16 15 16 19
32 30 34 29 31 33 35 33 30 26 24 23 19 18 17 18 23 28 31 27 20 15 11 10 12 14 18 19 20 21 21 20 18 15 14 15 16 17 17 17 18 20 20
31 29 34 30 31 32 34 36 34 31 25 20 18 17 16 19 22 27 30 27 22 17 12 11 11 11 13 15 17 18 17 15 17 17 16 17 18 21 20 21 23 34 34
32 27 32 29 34 33 35 35 35 34 30 23 19 16 16 23 24 24 25 23 22 18 15 15 15 15 16 18 18 18 18 19 20 20 19 18 21 25 28 32 35 36 36
34 28 29 29 33 34 36 38 37 34 33 30 23 17 18 26 26 23 23 24 23 21 19 20 20 20 20 20 20 21 21 22 22 22 22 21 23 29 36 34 38 37 36
33 29 30 32 35 36 39 41 38 35 31 31 27 22 19 23 23 24 22 22 22 20 21 21 21 22 22 23 24 25 26 26 26 25 24 23 23 26 30 30 30 32 32
32 30 32 37 35 37 41 42 41 40 35 30 26 24 23 21 21 25 27 26 23 22 23 23 24 24 25 25 26 26 26 26 25 24 24 24 23 22 28 27 27 26 26
36 33 33 34 36 40 45 44 43 42 39 34 30 26 24 24 24 24 24 26 27 29 30 29 28 26 26 26 26 27 28 28 27 27 27 26 28 29 31 28 26 24 24
40 37 34 32 35 42 45 44 44 44 41 36 33 29 25 26 25 26 26 26 27 30 31 32 33 34 33 33 32 31 31 29 27 27 27 28 32 36 36 34 31 25 22
44 42 40 38 35 41 43 41 42 42 41 38 34 30 26 28 28 29 29 28 28 30 31 32 33 35 36 37 36 34 35 33 31 31 31 31 34 37 38 38 36 33 26
43 43 42 42 39 39 40 38 37 39 38 35 34 30 28 29 30 31 32 33 33 34 36 36 37 38 38 38 38 38 39 39 39 37 35 35 37 39 37 38 38 31 28
49 49 45 43 42 40 38 38 36 36 35 34 32 31 31 29 30 31 33 35 34 33 34 36 36 36 40 43 45 46 45 45 45 45 45 43 43 40 40 40 34 35 31
49 48 48 45 41 37 36 35 34 32 31 31 31 32 32 32 33 33 34 35 36 36 35 35 36 37 37 38 41 46 48 49 50 50 49 50 50 48 43 38 37 35 32
51 49 47 44 41 39 35 34 31 30 29 28 29 30 33 35 37 36 38 40 41 42 42 43 42 40 39 39 39 40 42 43 47 50 52 53 53 54 54 53 45 39 36
53 51 46 43 40 37 34 32 31 29 28 27 29 33 33 36 37 38 38 38 39 40 41 41 41 42 41 43 44 44 45 45 45 46 48 49 52 54 57 58 57 53 44
51 50 44 41 37 35 35 34 33 32 29 28 32 35 34 34 33 33 33 33 33 35 36 36 38 39 40 42 43 47 49 49 49 47 48 48 49 51 54 58 58 60 57
45 45 42 38 36 35 36 37 36 34 30 29 30 33 34 35 36 35 32 31 33 38 39 38 41 43 44 47 48 49 51 53 54 53 52 52 54 54 54 53 54 56 63
40 42 43 41 39 38 38 38 37 35 32 31 32 32 34 35 35 35 34 36 43 49 48 49 50 51 49 53 54 55 58 58 59 61 62 64 61 61 60 59 58 57 59
32 32 34 39 41 40 39 38 37 36 32 32 31 32 33 34 35 41 52 56 54 54 51 45 43 46 50 55 64 66 68 71 70 70 72 75 74 70 69 68 68 65 64
33 32 33 32 32 34 33 33 34 32 32 32 31 32 34 42 46 49 51 46 42 40 43 47 46 50 56 63 66 64 65 70 72 76 78 74 72 71 73 75 76 78 78
34 32 31 31 31 32 33 33 33 31 30 28 26 26 27 29 31 35 38 48 45 42 40 38 37 38 43 51 64 64 65 65 65 65 66 65 68 71 72 76 78 80 84
35 33 31 31 30 30 29 29 28 28 28 28 26 24 25 27 28 30 29 29 29 31 31 32 36 39 41 42 45 55 60 55 56 57 60 66 69 71 72 79 79 80 83
35 34 32 31 28 27 26 25 25 25 25 25 26 25 24 23 23 25 25 26 27 28 30 32 34 34 37 40 42 45 50 53 54 55 63 64 66 70 74 93 83 80 84
34 32 31 30 28 26 24 22 21 21 22 21 21 21 20 21 21 22 22 23 23 26 28 30 34 36 40 45 49 54 56 57 66 76 59 59 66 68 79 85 86 85 91
32 31 30 28 26 24 22 20 20 20 19 19 18 18 19 18 18 18 17 18 18 22 27 35 40 45 48 53 53 44 48 53 55 52 50 51 51 51 54 67 69 85 90